TimeCST,TemperatureF,Dew PointF,Humidity,Sea Level PressureIn,VisibilityMPH,Wind Direction,Wind SpeedMPH,Gust SpeedMPH,PrecipitationIn,Events,Conditions,WindDirDegrees,DateUTC
12:53 AM,28.9,23.0,78,30.23,10.0,Calm,Calm,-,N/A,,Clear,0,2012-11-29 06:53:00
1:53 AM,30.0,24.1,79,30.23,10.0,ESE,3.5,-,N/A,,Clear,120,2012-11-29 07:53:00
2:53 AM,30.0,24.1,79,30.23,10.0,Calm,Calm,-,N/A,,Clear,0,2012-11-29 08:53:00
3:53 AM,30.0,24.1,79,30.22,10.0,ESE,5.8,-,N/A,,Clear,120,2012-11-29 09:53:00
4:53 AM,30.0,25.0,82,30.22,10.0,SE,5.8,-,N/A,,Clear,140,2012-11-29 10:53:00
6:53 AM,34.0,28.0,79,30.21,10.0,ESE,6.9,-,N/A,,Clear,110,2012-11-29 12:53:00
7:53 AM,36.0,28.9,76,30.20,10.0,ESE,5.8,-,N/A,,Clear,110,2012-11-29 13:53:00
8:53 AM,41.0,32.0,70,30.19,10.0,ESE,5.8,-,N/A,,Clear,120,2012-11-29 14:53:00
9:53 AM,48.9,33.1,54,30.16,10.0,ESE,6.9,-,N/A,,Clear,120,2012-11-29 15:53:00
10:53 AM,55.9,32.0,40,30.12,10.0,South,12.7,19.6,N/A,,Clear,180,2012-11-29 16:53:00
11:53 AM,57.9,33.1,39,30.11,10.0,South,13.8,18.4,N/A,,Clear,180,2012-11-29 17:53:00
12:53 PM,61.0,34.0,36,30.07,10.0,South,11.5,-,N/A,,Clear,180,2012-11-29 18:53:00
1:53 PM,63.0,35.1,35,30.05,10.0,SSW,11.5,-,N/A,,Clear,210,2012-11-29 19:53:00
2:53 PM,64.0,36.0,35,30.03,10.0,Variable,6.9,-,N/A,,Clear,0,2012-11-29 20:53:00
3:53 PM,64.0,36.0,35,30.03,10.0,South,8.1,-,N/A,,Clear,170,2012-11-29 21:53:00
4:53 PM,60.1,35.1,39,30.03,10.0,SSE,6.9,-,N/A,,Clear,160,2012-11-29 22:53:00
5:53 PM,55.0,33.1,43,30.04,10.0,SE,6.9,-,N/A,,Clear,130,2012-11-29 23:53:00
6:53 PM,55.9,30.0,37,30.03,10.0,SE,8.1,-,N/A,,Clear,140,2012-11-30 00:53:00
7:53 PM,55.0,28.9,37,30.04,10.0,SE,4.6,-,N/A,,Clear,130,2012-11-30 01:53:00
8:53 PM,53.1,28.9,40,30.04,10.0,ESE,4.6,-,N/A,,Clear,110,2012-11-30 02:53:00
9:53 PM,52.0,28.9,41,30.04,10.0,ESE,4.6,-,N/A,,Clear,110,2012-11-30 03:53:00
10:53 PM,52.0,28.9,41,30.05,10.0,East,3.5,-,N/A,,Clear,100,2012-11-30 04:53:00
11:53 PM,48.9,28.9,46,30.06,10.0,ESE,4.6,-,N/A,,Clear,110,2012-11-30 05:53:00